Location: *
(46.1833°N, 22.7667°E)
Time: 05:14:11
(UTC+00:00)

SL-16 R/B - Pass Details

Date: 17 September 2019
Orbit: 840 x 850 km, 71.0° (Epoch: 22 October)

Event Time Altitude Azimuth Distance (km) Brightness Sun altitude
Rises 18:43:26 0° 337° (NNW) 3,415 6.2 -21.7°
Reaches altitude 10° 18:45:59 10° 343° (NNW) 2,477 5.2 -22.1°
Maximum altitude 18:51:28 47° 57° (ENE) 1,117 2.6 -22.9°
Enters shadow 18:52:10 44° 79° (E) 1,153 2.5 -23.0°
